Flag for USA

Past Weather in Beaumont, Texas, USA — Yesterday and Last 2 Weeks

Now
81 °F

Clear.


Feels Like: 89 °F
Forecast: 97 / 78 °F
Wind: 5 mph from Southwest

Location: Jefferson County Airport

Current Time: Jul 10, 2020 at 11:05:47 pm

Latest Report: Jul 10, 2020 at 9:53 pm


Visibility: 10 mi

Pressure: 29.98 "Hg

Humidity: 94%

Dew Point: 79 °F

Location of BeaumontLocation

Past Weather in Beaumont — Graph

°F

Beaumont Temperature Yesterday

Maximum temperature yesterday: 91 °F (at 12:53 pm)
Minimum temperature yesterday: 77 °F (at 3:53 am)
Average temperature yesterday: 84 °F

High & Low Weather Summary for the Past Weeks

 TemperatureHumidityPressure
High94 °F (Jul 10, 12:53 pm)100% (Jun 25, 9:53 pm)30.13 "Hg (Jun 25, 9:53 pm)
Low70 °F (Jul 4, 2:00 am)52% (Jul 4, 5:53 pm)29.81 "Hg (Jul 5, 6:53 pm)
Average82 °F86%29.94 "Hg
* Reported Jun 25 9:53 pm — Jul 10 9:53 pm, Beaumont. Weather by CustomWeather, © 2020

Note: Actual official high and low records may vary slightly from our data, if they occured in-between our weather recording intervals... More about our weather records

Beaumont Weather History for the Previous 24 Hours

Scroll right to see more
 ConditionsComfort  
Time TempWeatherWind HumidityBarometerVisibility
9:53 pm
Fri, Jul 10
81 °FClear.5 mph94%29.98 "Hg10 mi
8:53 pm82 °FClear.6 mph91%29.99 "Hg10 mi
7:53 pm85 °FSunny.8 mph83%29.98 "Hg10 mi
6:53 pm88 °FSunny.9 mph75%29.98 "Hg10 mi
5:53 pm91 °FPassing clouds.12 mph70%29.99 "Hg10 mi
4:53 pm92 °FPassing clouds.9 mph69%30.00 "Hg10 mi
3:53 pm94 °FBroken clouds.7 mph60%30.01 "Hg10 mi
2:53 pm94 °FScattered clouds.3 mph56%30.02 "Hg10 mi
1:53 pm94 °FPassing clouds.7 mph58%30.02 "Hg10 mi
12:53 pm94 °FPassing clouds.12 mph58%30.03 "Hg10 mi
11:53 am91 °FPassing clouds.6 mph64%30.04 "Hg10 mi
10:53 am90 °FBroken clouds.8 mph68%30.04 "Hg10 mi
10:30 am89 °FBroken clouds.10 mph70%30.04 "Hg10 mi
10:00 am87 °FPartly sunny.8 mph77%30.04 "Hg10 mi
8:53 am85 °FSunny.5 mph86%30.04 "Hg10 mi
7:53 am79 °FSunny.No wind100%30.03 "Hg8 mi
6:53 am75 °FFog.No wind100%30.02 "Hg5 mi
5:53 am75 °FFog.No wind100%29.99 "Hg6 mi
4:53 am75 °FClear.No wind100%29.97 "Hg9 mi
4:34 am75 °FFog.3 mph100%29.97 "Hg3 mi
3:57 am76 °FFog.No wind100%29.97 "Hg3 mi
2:53 am77 °FClear.No wind100%29.96 "Hg10 mi
1:53 am78 °FClear.5 mph96%29.96 "Hg10 mi
12:53 am78 °FClear.6 mph96%29.96 "Hg10 mi
11:53 pm
Thu, Jul 9
79 °FClear.3 mph94%29.97 "Hg10 mi
Weather by CustomWeather, © 2020

See weather overview